"Sample Date","Sample Time","Sample Value","Units","Flow Rate","Laser Status","Micron Size 0","Counts/Channel 0","Micron Size 1","Counts/Channel 1","Micron Size 2","Counts/Channel 2","Micron Size 3","Counts/Channel 3","Micron Size 4","Counts/Channel 4","Micron Size 5","Counts/Channel 5","Micron Size 6","Counts/Channel 6","Micron Size 7","Counts/Channel 7","Micron Size 8","Counts/Channel 8","Micron Size 9","Counts/Channel 9","Micron Size 10","Counts/Channel 10","Micron Size 11","Counts/Channel 11","Micron Size 12","Counts/Channel 12","Micron Size 13","Counts/Channel 13","Micron Size 14","Counts/Channel 14","Micron Size 15","Counts/Channel 15","Micron Size 16","Counts/Channel 16","Micron Size 17","Counts/Channel 17","Micron Size 18","Counts/Channel 18","Micron Size 19","Counts/Channel 19","Micron Size 20","Counts/Channel 20","Micron Size 21","Counts/Channel 21","Micron Size 22","Counts/Channel 22","Micron Size 23","Counts/Channel 23","Micron Size 24","Counts/Channel 24","Micron Size 25","Counts/Channel 25","Micron Size 26","Counts/Channel 26","Micron Size 27","Counts/Channel 27","Micron Size 28","Counts/Channel 28","Micron Size 29","Counts/Channel 29","Micron Size 30","Counts/Channel 30","Micron Size 31","Counts/Channel 31"
"03/01/08","07:00:05",330852.000,"cc",28288.754,1,0.100,282761.000,0.200,43552.000,0.300,2863.000,0.500,1236.000,1.000,440.000,5.000,0
"03/01/08","07:00:11",394522.000,"cc",28364.676,1,0.100,312301.000,0.200,75547.000,0.300,4687.000,0.500,1486.000,1.000,501.000,5.000,0
"03/01/08","07:00:17",312565.000,"cc",28344.232,1,0.100,232277.000,0.200,73033.000,0.300,4904.000,0.500,1763.000,1.000,588.000,5.000,0
"03/01/08","07:00:23",323511.000,"cc",28241.188,1,0.100,257594.000,0.200,59148.000,0.300,4312.000,0.500,1817.000,1.000,640.000,5.000,0
"03/01/08","07:00:29",342527.000,"cc",28276.971,1,0.100,289209.000,0.200,47573.000,0.300,3556.000,0.500,1601.000,1.000,588.000,5.000,0
"03/01/08","07:00:35",283563.000,"cc",28274.469,1,0.100,243463.000,0.200,35539.000,0.300,2758.000,0.500,1311.000,1.000,492.000,5.000,0
"03/01/08","07:00:41",393978.000,"cc",28331.400,1,0.100,329420.000,0.200,59077.000,0.300,3805.000,0.500,1257.000,1.000,419.000,5.000,0
"03/01/08","07:00:47",394470.000,"cc",28372.182,1,0.100,309265.000,0.200,78355.000,0.300,4946.000,0.500,1405.000,1.000,499.000,5.000,0
"03/01/08","07:00:53",412678.000,"cc",28335.887,1,0.100,342330.000,0.200,64106.000,0.300,4354.000,0.500,1373.000,1.000,515.000,5.000,0
"03/01/08","07:00:59",309016.000,"cc",28400.328,1,0.100,232531.000,0.200,70434.000,0.300,4264.000,0.500,1327.000,1.000,460.000,5.000,0
"03/01/08","07:01:05",433062.000,"cc",28334.703,1,0.100,305412.000,0.200,116819.000,0.300,8556.000,0.500,1698.000,1.000,577.000,5.000,0
"03/01/08","07:01:11",447044.000,"cc",28270.545,1,0.100,289797.000,0.200,143609.000,0.300,11102.000,0.500,1917.000,1.000,619.000,5.000,0
"03/01/08","07:01:17",498212.000,"cc",28344.244,1,0.100,330193.000,0.200,153011.000,0.300,12436.000,0.500,1936.000,1.000,635.000,5.000,1.000
"03/01/08","07:01:23",432775.000,"cc",28321.742,1,0.100,317242.000,0.200,106351.000,0.300,7078.000,0.500,1594.000,1.000,510.000,5.000,0
"03/01/08","07:01:29",369920.000,"cc",28297.953,1,0.100,259529.000,0.200,101678.000,0.300,6645.000,0.500,1552.000,1.000,516.000,5.000,0
"03/01/08","07:01:35",427243.000,"cc",28262.680,1,0.100,319938.000,0.200,98655.000,0.300,6494.000,0.500,1565.000,1.000,591.000,5.000,0
"03/01/08","07:01:41",384112.000,"cc",28337.193,1,0.100,300248.000,0.200,76891.000,0.300,4965.000,0.500,1490.000,1.000,518.000,5.000,0
"03/01/08","07:01:47",289337.000,"cc",28366.404,1,0.100,233466.000,0.200,50600.000,0.300,3486.000,0.500,1313.000,1.000,472.000,5.000,0
"03/01/08","07:01:53",324918.000,"cc",28329.041,1,0.100,261248.000,0.200,57940.000,0.300,3801.000,0.500,1382.000,1.000,547.000,5.000,0
"03/01/08","07:01:59",297001.000,"cc",28311.113,1,0.100,214215.000,0.200,76134.000,0.300,4755.000,0.500,1390.000,1.000,507.000,5.000,0
"03/01/08","07:02:05",309028.000,"cc",28214.096,1,0.100,193321.000,0.200,107392.000,0.300,6574.000,0.500,1338.000,1.000,403.000,5.000,0
"03/01/08","07:02:11",358928.000,"cc",28292.904,1,0.100,255982.000,0.200,94658.000,0.300,6047.000,0.500,1666.000,1.000,575.000,5.000,0
"03/01/08","07:02:17",273430.000,"cc",28297.145,1,0.100,185030.000,0.200,82210.000,0.300,4673.000,0.500,1133.000,1.000,384.000,5.000,0
"03/01/08","07:02:23",394836.000,"cc",28366.338,1,0.100,311596.000,0.200,77074.000,0.300,4475.000,0.500,1255.000,1.000,436.000,5.000,0
"03/01/08","07:02:29",285829.000,"cc",28278.777,1,0.100,193263.000,0.200,85772.000,0.300,4872.000,0.500,1393.000,1.000,529.000,5.000,0
"03/01/08","07:02:35",405150.000,"cc",28297.627,1,0.100,320167.000,0.200,78577.000,0.300,4550.000,0.500,1357.000,1.000,497.000,5.000,2.000
"03/01/08","07:02:41",192222.000,"cc",28302.215,1,0.100,76788.000,0.200,106920.000,0.300,6514.000,0.500,1501.000,1.000,498.000,5.000,1.000
"03/01/08","07:02:47",289898.000,"cc",28292.080,1,0.100,193972.000,0.200,88934.000,0.300,5091.000,0.500,1435.000,1.000,465.000,5.000,1.000
"03/01/08","07:02:53",288215.000,"cc",28309.115,1,0.100,194214.000,0.200,86749.000,0.300,5139.000,0.500,1562.000,1.000,551.000,5.000,0
"03/01/08","07:02:59",245044.000,"cc",28410.318,1,0.100,137223.000,0.200,98779.000,0.300,6402.000,0.500,1920.000,1.000,720.000,5.000,0
"03/01/08","07:03:05",398315.000,"cc",28372.838,1,0.100,309214.000,0.200,81130.000,0.300,5336.000,0.500,1938.000,1.000,697.000,5.000,0
"03/01/08","07:03:11",323275.000,"cc",28308.662,1,0.100,272077.000,0.200,44735.000,0.300,3728.000,0.500,1939.000,1.000,796.000,5.000,0
"03/01/08","07:03:17",332396.000,"cc",28228.014,1,0.100,282059.000,0.200,44056.000,0.300,3599.000,0.500,1974.000,1.000,708.000,5.000,0
"03/01/08","07:03:23",299523.000,"cc",28307.359,1,0.100,256298.000,0.200,37406.000,0.300,3218.000,0.500,1865.000,1.000,736.000,5.000,0
"03/01/08","07:03:29",259304.000,"cc",28324.828,1,0.100,222577.000,0.200,31638.000,0.300,2846.000,0.500,1645.000,1.000,598.000,5.000,0
"03/01/08","07:03:35",203183.000,"cc",28323.658,1,0.100,176822.000,0.200,22319.000,0.300,2174.000,0.500,1335.000,1.000,533.000,5.000,0
"03/01/08","07:03:41",236031.000,"cc",28366.904,1,0.100,205092.000,0.200,26875.000,0.300,2235.000,0.500,1328.000,1.000,501.000,5.000,0
"03/01/08","07:03:47",370903.000,"cc",28271.299,1,0.100,313498.000,0.200,51612.000,0.300,3585.000,0.500,1609.000,1.000,599.000,5.000,0
"03/01/08","07:03:53",424104.000,"cc",28293.408,1,0.100,280406.000,0.200,130958.000,0.300,10243.000,0.500,1860.000,1.000,637.000,5.000,0
"03/01/08","07:03:59",421370.000,"cc",28334.975,1,0.100,311989.000,0.200,100971.000,0.300,6436.000,0.500,1494.000,1.000,480.000,5.000,0
"03/01/08","07:04:05",296258.000,"cc",28301.002,1,0.100,191459.000,0.200,96331.000,0.300,6226.000,0.500,1635.000,1.000,607.000,5.000,0
"03/01/08","07:04:11",450105.000,"cc",28282.340,1,0.100,307237.000,0.200,130549.000,0.300,9521.000,0.500,2107.000,1.000,691.000,5.000,0
"03/01/08","07:04:17",452158.000,"cc",28349.559,1,0.100,320134.000,0.200,121077.000,0.300,8347.000,0.500,1950.000,1.000,650.000,5.000,0
"03/01/08","07:04:23",450359.000,"cc",28271.406,1,0.100,307511.000,0.200,130864.000,0.300,9348.000,0.500,2014.000,1.000,622.000,5.000,0
"03/01/08","07:04:29",448779.000,"cc",28325.254,1,0.100,325365.000,0.200,114402.000,0.300,7075.000,0.500,1461.000,1.000,476.000,5.000,0
"03/01/08","07:04:35",455605.000,"cc",28376.494,1,0.100,316530.000,0.200,128761.000,0.300,8472.000,0.500,1348.000,1.000,494.000,5.000,0
"03/01/08","07:04:41",306997.000,"cc",28266.004,1,0.100,191103.000,0.200,107161.000,0.300,6669.000,0.500,1548.000,1.000,516.000,5.000,0
"03/01/08","07:04:47",403417.000,"cc",28283.041,1,0.100,313906.000,0.200,82623.000,0.300,4967.000,0.500,1434.000,1.000,487.000,5.000,0
"03/01/08","07:04:53",293623.000,"cc",28325.932,1,0.100,190484.000,0.200,94610.000,0.300,6195.000,0.500,1732.000,1.000,602.000,5.000,0
"03/01/08","07:04:59",367454.000,"cc",28348.725,1,0.100,289793.000,0.200,71755.000,0.300,4307.000,0.500,1173.000,1.000,426.000,5.000,0
"03/01/08","07:05:05",327895.000,"cc",28330.316,1,0.100,236376.000,0.200,84450.000,0.300,5246.000,0.500,1318.000,1.000,505.000,5.000,0
"03/01/08","07:05:11",459421.000,"cc",28343.838,1,0.100,314112.000,0.200,133453.000,0.300,9373.000,0.500,1871.000,1.000,612.000,5.000,0
"03/01/08","07:05:17",445306.000,"cc",28328.057,1,0.100,313387.000,0.200,120616.000,0.300,8637.000,0.500,2007.000,1.000,659.000,5.000,0
"03/01/08","07:05:23",363795.000,"cc",28290.229,1,0.100,254188.000,0.200,100844.000,0.300,6611.000,0.500,1603.000,1.000,549.000,5.000,0
"03/01/08","07:05:29",448268.000,"cc",28306.969,1,0.100,311093.000,0.200,125576.000,0.300,8907.000,0.500,2040.000,1.000,652.000,5.000,0
"03/01/08","07:05:35",430299.000,"cc",28276.895,1,0.100,320108.000,0.200,101084.000,0.300,6779.000,0.500,1752.000,1.000,576.000,5.000,0
"03/01/08","07:05:41",285493.000,"cc",28358.861,1,0.100,187131.000,0.200,90767.000,0.300,5730.000,0.500,1370.000,1.000,495.000,5.000,0
"03/01/08","07:05:47",443498.000,"cc",28235.875,1,0.100,314398.000,0.200,118009.000,0.300,8354.000,0.500,2043.000,1.000,694.000,5.000,0
"03/01/08","07:05:53",384545.000,"cc",28261.627,1,0.100,260366.000,0.200,113611.000,0.300,7809.000,0.500,2070.000,1.000,689.000,5.000,0
"03/01/08","07:05:59",451949.000,"cc",28340.531,1,0.100,302405.000,0.200,135754.000,0.300,10607.000,0.500,2415.000,1.000,768.000,5.000,0
"03/01/08","07:06:05",423684.000,"cc",28301.785,1,0.100,315447.000,0.200,97501.000,0.300,7327.000,0.500,2496.000,1.000,913.000,5.000,0
"03/01/08","07:06:11",302309.000,"cc",28322.232,1,0.100,193646.000,0.200,98425.000,0.300,7019.000,0.500,2342.000,1.000,877.000,5.000,0
"03/01/08","07:06:17",399859.000,"cc",28381.902,1,0.100,307761.000,0.200,83420.000,0.300,5841.000,0.500,2080.000,1.000,757.000,5.000,0
"03/01/08","07:06:23",388707.000,"cc",28316.068,1,0.100,301543.000,0.200,79000.000,0.300,5465.000,0.500,1957.000,1.000,742.000,5.000,0
"03/01/08","07:06:29",404930.000,"cc",28315.691,1,0.100,313281.000,0.200,82641.000,0.300,6093.000,0.500,2174.000,1.000,740.000,5.000,1.000
"03/01/08","07:06:35",399266.000,"cc",28327.635,1,0.100,299691.000,0.200,89964.000,0.300,6699.000,0.500,2172.000,1.000,740.000,5.000,0
"03/01/08","07:06:41",446615.000,"cc",28300.068,1,0.100,295601.000,0.200,138746.000,0.300,10047.000,0.500,1725.000,1.000,496.000,5.000,0
"03/01/08","07:06:47",434174.000,"cc",28311.195,1,0.100,278805.000,0.200,140861.000,0.300,11484.000,0.500,2294.000,1.000,730.000,5.000,0
"03/01/08","07:06:53",497755.000,"cc",28345.107,1,0.100,348813.000,0.200,135284.000,0.300,10949.000,0.500,2005.000,1.000,704.000,5.000,0
"03/01/08","07:06:59",449210.000,"cc",28322.420,1,0.100,304048.000,0.200,132276.000,0.300,9938.000,0.500,2197.000,1.000,751.000,5.000,0
"03/01/08","07:07:05",442639.000,"cc",28351.582,1,0.100,315037.000,0.200,113874.000,0.300,9249.000,0.500,3321.000,1.000,1157.000,5.000,1.000
"03/01/08","07:07:11",349353.000,"cc",28221.393,1,0.100,269821.000,0.200,71048.000,0.300,5518.000,0.500,2165.000,1.000,801.000,5.000,0
"03/01/08","07:07:17",379860.000,"cc",28359.678,1,0.100,317712.000,0.200,56032.000,0.300,3894.000,0.500,1624.000,1.000,598.000,5.000,0
"03/01/08","07:07:23",349712.000,"cc",28295.359,1,0.100,242349.000,0.200,98665.000,0.300,6695.000,0.500,1505.000,1.000,498.000,5.000,0
"03/01/08","07:07:29",439967.000,"cc",28305.104,1,0.100,272847.000,0.200,151764.000,0.300,12477.000,0.500,2185.000,1.000,694.000,5.000,0
"03/01/08","07:07:35",442171.000,"cc",28299.713,1,0.100,287225.000,0.200,140630.000,0.300,11249.000,0.500,2293.000,1.000,774.000,5.000,0
"03/01/08","07:07:41",448572.000,"cc",28335.635,1,0.100,296169.000,0.200,138473.000,0.300,10887.000,0.500,2269.000,1.000,774.000,5.000,0
"03/01/08","07:07:47",444382.000,"cc",28355.029,1,0.100,299940.000,0.200,131100.000,0.300,10095.000,0.500,2440.000,1.000,807.000,5.000,0
"03/01/08","07:07:53",430942.000,"cc",28264.555,1,0.100,315721.000,0.200,103259.000,0.300,8121.000,0.500,2835.000,1.000,1006.000,5.000,0
"03/01/08","07:07:59",440112.000,"cc",28312.465,1,0.100,321413.000,0.200,107652.000,0.300,7835.000,0.500,2334.000,1.000,878.000,5.000,0
"03/01/08","07:08:05",379447.000,"cc",28305.445,1,0.100,259482.000,0.200,108636.000,0.300,7887.000,0.500,2522.000,1.000,920.000,5.000,0
"03/01/08","07:08:11",284042.000,"cc",28383.604,1,0.100,183070.000,0.200,92013.000,0.300,6271.000,0.500,1996.000,1.000,692.000,5.000,0
"03/01/08","07:08:17",451235.000,"cc",28317.379,1,0.100,316187.000,0.200,122990.000,0.300,9125.000,0.500,2172.000,1.000,761.000,5.000,0
"03/01/08","07:08:23",445545.000,"cc",28282.334,1,0.100,322443.000,0.200,112143.000,0.300,8073.000,0.500,2097.000,1.000,789.000,5.000,0
"03/01/08","07:08:29",384291.000,"cc",28314.029,1,0.100,263483.000,0.200,110468.000,0.300,7549.000,0.500,2061.000,1.000,730.000,5.000,0
"03/01/08","07:08:35",428042.000,"cc",28305.973,1,0.100,263988.000,0.200,147814.000,0.300,12884.000,0.500,2523.000,1.000,833.000,5.000,0
"03/01/08","07:08:41",435195.000,"cc",28368.191,1,0.100,277915.000,0.200,142369.000,0.300,11677.000,0.500,2396.000,1.000,837.000,5.000,1.000
"03/01/08","07:08:47",497098.000,"cc",28372.576,1,0.100,334220.000,0.200,147869.000,0.300,12209.000,0.500,2137.000,1.000,663.000,5.000,0
"03/01/08","07:08:53",434072.000,"cc",28316.436,1,0.100,308351.000,0.200,114964.000,0.300,8248.000,0.500,1890.000,1.000,619.000,5.000,0
"03/01/08","07:08:59",439615.000,"cc",28243.582,1,0.100,320865.000,0.200,108970.000,0.300,7388.000,0.500,1797.000,1.000,595.000,5.000,0
"03/01/08","07:09:05",442097.000,"cc",28295.713,1,0.100,295107.000,0.200,134820.000,0.300,10033.000,0.500,1634.000,1.000,503.000,5.000,0
"03/01/08","07:09:11",433027.000,"cc",28318.643,1,0.100,281521.000,0.200,139185.000,0.300,10352.000,0.500,1489.000,1.000,480.000,5.000,0
"03/01/08","07:09:17",445596.000,"cc",28271.854,1,0.100,291960.000,0.200,141161.000,0.300,10311.000,0.500,1651.000,1.000,513.000,5.000,0
"03/01/08","07:09:23",449251.000,"cc",28324.326,1,0.100,295978.000,0.200,140915.000,0.300,10062.000,0.500,1792.000,1.000,504.000,5.000,0
"03/01/08","07:09:29",429002.000,"cc",28287.315,1,0.100,313070.000,0.200,105939.000,0.300,7283.000,0.500,2025.000,1.000,685.000,5.000,0
"03/01/08","07:09:35",386440.000,"cc",28349.682,1,0.100,297156.000,0.200,80959.000,0.300,5683.000,0.500,1960.000,1.000,682.000,5.000,0
"03/01/08","07:09:41",349256.000,"cc",28235.152,1,0.100,276348.000,0.200,66019.000,0.300,4636.000,0.500,1639.000,1.000,614.000,5.000,0
"03/01/08","07:09:47",342049.000,"cc",28331.139,1,0.100,265635.000,0.200,69298.000,0.300,4841.000,0.500,1710.000,1.000,565.000,5.000,0
"03/01/08","07:09:53",406137.000,"cc",28409.818,1,0.100,251609.000,0.200,137864.000,0.300,13548.000,0.500,2370.000,1.000,746.000,5.000,0
"03/01/08","07:09:59",388088.000,"cc",28304.359,1,0.100,203166.000,0.200,159953.000,0.300,21234.000,0.500,2891.000,1.000,844.000,5.000,0
"03/01/08","07:10:05",467560.000,"cc",28326.041,1,0.100,301860.000,0.200,148059.000,0.300,14230.000,0.500,2560.000,1.000,851.000,5.000,0
"03/01/08","07:10:11",432900.000,"cc",28299.762,1,0.100,270815.000,0.200,146797.000,0.300,12339.000,0.500,2221.000,1.000,728.000,5.000,0
"03/01/08","07:10:17",475942.000,"cc",28341.744,1,0.100,298833.000,0.200,159154.000,0.300,14927.000,0.500,2333.000,1.000,695.000,5.000,0
"03/01/08","07:10:23",455808.000,"cc",28333.598,1,0.100,277069.000,0.200,159009.000,0.300,16441.000,0.500,2534.000,1.000,755.000,5.000,0
"03/01/08","07:10:29",471393.000,"cc",28213.865,1,0.100,306092.000,0.200,147502.000,0.300,14130.000,0.500,2761.000,1.000,908.000,5.000,0
"03/01/08","07:10:35",436931.000,"cc",28161.219,1,0.100,286052.000,0.200,136287.000,0.300,11115.000,0.500,2616.000,1.000,861.000,5.000,0
"03/01/08","07:10:41",439962.000,"cc",28358.139,1,0.100,307551.000,0.200,120398.000,0.300,8969.000,0.500,2302.000,1.000,742.000,5.000,0
"03/01/08","07:10:47",440177.000,"cc",28349.018,1,0.100,288342.000,0.200,139018.000,0.300,10423.000,0.500,1821.000,1.000,573.000,5.000,0
"03/01/08","07:10:53",377053.000,"cc",28377.660,1,0.100,274205.000,0.200,90683.000,0.300,7836.000,0.500,3141.000,1.000,1188.000,5.000,0
"03/01/08","07:10:59",406947.000,"cc",28325.820,1,0.100,300726.000,0.200,91862.000,0.300,8692.000,0.500,4081.000,1.000,1586.000,5.000,0
"03/01/08","07:11:05",350983.000,"cc",28297.691,1,0.100,270542.000,0.200,71118.000,0.300,5787.000,0.500,2598.000,1.000,938.000,5.000,0
"03/01/08","07:11:11",377315.000,"cc",28326.854,1,0.100,292030.000,0.200,75652.000,0.300,5905.000,0.500,2692.000,1.000,1035.000,5.000,1.000
"03/01/08","07:11:17",233320.000,"cc",28272.539,1,0.100,124641.000,0.200,99656.000,0.300,6558.000,0.500,1816.000,1.000,649.000,5.000,0
"03/01/08","07:11:23",441337.000,"cc",28298.262,1,0.100,287524.000,0.200,141131.000,0.300,10444.000,0.500,1711.000,1.000,527.000,5.000,0
"03/01/08","07:11:29",427996.000,"cc",28341.424,1,0.100,281664.000,0.200,134108.000,0.300,10144.000,0.500,1599.000,1.000,481.000,5.000,0
"03/01/08","07:11:35",450998.000,"cc",28370.951,1,0.100,301886.000,0.200,136673.000,0.300,9889.000,0.500,1952.000,1.000,598.000,5.000,0
"03/01/08","07:11:41",441703.000,"cc",28244.109,1,0.100,279350.000,0.200,147838.000,0.300,11603.000,0.500,2196.000,1.000,715.000,5.000,1.000
"03/01/08","07:11:47",414531.000,"cc",28380.912,1,0.100,241440.000,0.200,156486.000,0.300,13909.000,0.500,2036.000,1.000,660.000,5.000,0
"03/01/08","07:11:53",494006.000,"cc",28355.606,1,0.100,329517.000,0.200,149915.000,0.300,12054.000,0.500,1899.000,1.000,621.000,5.000,0
"03/01/08","07:11:59",502105.000,"cc",28316.709,1,0.100,347564.000,0.200,141241.000,0.300,10774.000,0.500,1941.000,1.000,585.000,5.000,0
"03/01/08","07:12:05",438839.000,"cc",28245.856,1,0.100,307024.000,0.200,119639.000,0.300,8997.000,0.500,2347.000,1.000,832.000,5.000,0
"03/01/08","07:12:11",431333.000,"cc",28369.209,1,0.100,309913.000,0.200,109647.000,0.300,8395.000,0.500,2514.000,1.000,864.000,5.000,0
"03/01/08","07:12:17",445662.000,"cc",28337.389,1,0.100,293794.000,0.200,137914.000,0.300,10924.000,0.500,2282.000,1.000,748.000,5.000,0
"03/01/08","07:12:23",435463.000,"cc",28310.824,1,0.100,259086.000,0.200,156219.000,0.300,17308.000,0.500,2185.000,1.000,665.000,5.000,0
"03/01/08","07:12:29",443704.000,"cc",28330.332,1,0.100,294015.000,0.200,136224.000,0.300,10517.000,0.500,2222.000,1.000,725.000,5.000,1.000
"03/01/08","07:12:35",439462.000,"cc",28239.252,1,0.100,310735.000,0.200,116663.000,0.300,8813.000,0.500,2461.000,1.000,790.000,5.000,0
"03/01/08","07:12:41",434134.000,"cc",28343.920,1,0.100,315090.000,0.200,107432.000,0.300,8031.000,0.500,2614.000,1.000,967.000,5.000,0
"03/01/08","07:12:47",402817.000,"cc",28336.895,1,0.100,286862.000,0.200,102868.000,0.300,9129.000,0.500,2917.000,1.000,1041.000,5.000,0
"03/01/08","07:12:53",447186.000,"cc",28358.863,1,0.100,297424.000,0.200,136229.000,0.300,10685.000,0.500,2126.000,1.000,722.000,5.000,0
"03/01/08","07:12:59",447353.000,"cc",28361.957,1,0.100,292946.000,0.200,140702.000,0.300,10833.000,0.500,2176.000,1.000,696.000,5.000,0
"03/01/08","07:13:05",382361.000,"cc",28271.373,1,0.100,257926.000,0.200,114731.000,0.300,7581.000,0.500,1616.000,1.000,507.000,5.000,0
"03/01/08","07:13:11",378055.000,"cc",28277.322,1,0.100,260952.000,0.200,108207.000,0.300,6888.000,0.500,1505.000,1.000,503.000,5.000,0
"03/01/08","07:13:17",460237.000,"cc",28270.359,1,0.100,320063.000,0.200,129498.000,0.300,8734.000,0.500,1509.000,1.000,433.000,5.000,0
"03/01/08","07:13:23",442652.000,"cc",28310.223,1,0.100,326293.000,0.200,107678.000,0.300,6928.000,0.500,1332.000,1.000,421.000,5.000,0
"03/01/08","07:13:29",384104.000,"cc",28335.281,1,0.100,256237.000,0.200,118107.000,0.300,7967.000,0.500,1367.000,1.000,426.000,5.000,0
"03/01/08","07:13:35",447532.000,"cc",28350.465,1,0.100,306304.000,0.200,130220.000,0.300,9140.000,0.500,1432.000,1.000,436.000,5.000,0
"03/01/08","07:13:41",438166.000,"cc",28320.934,1,0.100,277465.000,0.200,147297.000,0.300,11599.000,0.500,1382.000,1.000,423.000,5.000,0
"03/01/08","07:13:47",486431.000,"cc",28292.865,1,0.100,325338.000,0.200,147514.000,0.300,11875.000,0.500,1342.000,1.000,362.000,5.000,0
"03/01/08","07:13:53",497884.000,"cc",28320.346,1,0.100,337651.000,0.200,147295.000,0.300,11200.000,0.500,1374.000,1.000,364.000,5.000,0
"03/01/08","07:13:59",446918.000,"cc",28219.139,1,0.100,295192.000,0.200,140562.000,0.300,9654.000,0.500,1168.000,1.000,342.000,5.000,0
"03/01/08","07:14:05",380213.000,"cc",28309.018,1,0.100,236282.000,0.200,133162.000,0.300,9114.000,0.500,1280.000,1.000,375.000,5.000,0
"03/01/08","07:14:11",354043.000,"cc",28363.982,1,0.100,250269.000,0.200,96087.000,0.300,5812.000,0.500,1406.000,1.000,469.000,5.000,0
"03/01/08","07:14:17",444466.000,"cc",28286.031,1,0.100,318190.000,0.200,115715.000,0.300,8002.000,0.500,1920.000,1.000,639.000,5.000,0
"03/01/08","07:14:23",434760.000,"cc",28337.643,1,0.100,315361.000,0.200,108958.000,0.300,7527.000,0.500,2168.000,1.000,746.000,5.000,0
"03/01/08","07:14:29",453965.000,"cc",28323.852,1,0.100,310261.000,0.200,131808.000,0.300,9226.000,0.500,2025.000,1.000,645.000,5.000,0
"03/01/08","07:14:35",306276.000,"cc",28287.158,1,0.100,186671.000,0.200,110040.000,0.300,7378.000,0.500,1600.000,1.000,587.000,5.000,0
"03/01/08","07:14:41",303725.000,"cc",28282.152,1,0.100,189824.000,0.200,105276.000,0.300,6632.000,0.500,1485.000,1.000,508.000,5.000,0
"03/01/08","07:14:47",433682.000,"cc",28315.359,1,0.100,261169.000,0.200,157591.000,0.300,12937.000,0.500,1526.000,1.000,458.000,5.000,1.000
"03/01/08","07:14:53",442076.000,"cc",28335.068,1,0.100,293169.000,0.200,137257.000,0.300,9880.000,0.500,1339.000,1.000,431.000,5.000,0
"03/01/08","07:14:59",430203.000,"cc",28371.434,1,0.100,315988.000,0.200,106075.000,0.300,6684.000,0.500,1120.000,1.000,336.000,5.000,0
"03/01/08","07:15:05",436939.000,"cc",28359.109,1,0.100,313482.000,0.200,114233.000,0.300,7479.000,0.500,1306.000,1.000,439.000,5.000,0
"03/01/08","07:15:11",424674.000,"cc",28275.459,1,0.100,272783.000,0.200,138114.000,0.300,11324.000,0.500,1878.000,1.000,575.000,5.000,0
"03/01/08","07:15:17",438881.000,"cc",28253.055,1,0.100,301986.000,0.200,124958.000,0.300,9120.000,0.500,2102.000,1.000,715.000,5.000,0
"03/01/08","07:15:23",429628.000,"cc",28306.729,1,0.100,314516.000,0.200,104640.000,0.300,7457.000,0.500,2241.000,1.000,774.000,5.000,0
"03/01/08","07:15:29",410979.000,"cc",28304.479,1,0.100,314177.000,0.200,88439.000,0.300,5889.000,0.500,1853.000,1.000,621.000,5.000,0
"03/01/08","07:15:35",450797.000,"cc",28379.873,1,0.100,322659.000,0.200,117455.000,0.300,8141.000,0.500,1908.000,1.000,634.000,5.000,0
"03/01/08","07:15:41",452684.000,"cc",28329.775,1,0.100,321898.000,0.200,120466.000,0.300,8035.000,0.500,1681.000,1.000,604.000,5.000,0
"03/01/08","07:15:47",425579.000,"cc",28277.139,1,0.100,309643.000,0.200,106689.000,0.300,7127.000,0.500,1603.000,1.000,517.000,5.000,0
"03/01/08","07:15:53",317035.000,"cc",28318.299,1,0.100,196153.000,0.200,111602.000,0.300,7239.000,0.500,1517.000,1.000,524.000,5.000,0
"03/01/08","07:15:59",436608.000,"cc",28322.568,1,0.100,302236.000,0.200,123690.000,0.300,8367.000,0.500,1741.000,1.000,574.000,5.000,0
"03/01/08","07:16:05",448711.000,"cc",28275.117,1,0.100,324631.000,0.200,113649.000,0.300,7790.000,0.500,1962.000,1.000,679.000,5.000,0
"03/01/08","07:16:11",440955.000,"cc",28376.639,1,0.100,304824.000,0.200,124713.000,0.300,9012.000,0.500,1795.000,1.000,611.000,5.000,0
"03/01/08","07:16:17",450637.000,"cc",28328.852,1,0.100,306131.000,0.200,133199.000,0.300,9190.000,0.500,1609.000,1.000,508.000,5.000,0
"03/01/08","07:16:23",442634.000,"cc",28323.924,1,0.100,320774.000,0.200,112841.000,0.300,7174.000,0.500,1398.000,1.000,447.000,5.000,0
"03/01/08","07:16:29",434851.000,"cc",28302.801,1,0.100,312116.000,0.200,113357.000,0.300,7459.000,0.500,1466.000,1.000,453.000,5.000,0